Weather History for Cairo, IL

Change the Weather History Date:

Wednesday, February 13, 2013

  Actual Average Record
Temperature  
Mean Temperature 42 °F -  
Max Temperature 48 °F 46 °F 76 °F (1962)
Min Temperature 37 °F 30 °F 11 °F (1986)
Degree Days  
Heating Degree Days 22    
Moisture  
Dew Point 36 °F    
Average Humidity 79    
Maximum Humidity 87    
Minimum Humidity 66    
Precipitation  
Precipitation 0.08 in - - ()
Sea Level Pressure  
Sea Level Pressure 29.91 in    
Wind  
Wind Speed 8 mph (West)    
Max Wind Speed 14 mph    
Max Gust Speed 21 mph    
Visibility 8 miles    
Events Snow    
Averages and records for this station are not official NWS values.
T = Trace of Precipitation, MM = Missing Value Source: NWS Daily Summary

Daily Weather History Graph

Daily Weather History Graph

Search for Another Location

Airport:

Trip Planner

Search our weather history database for the weather conditions in past years. The results will help you decide how hot, cold, wet, or windy it might be!

Date:

Astronomy

Feb. 13, 2013 Rise Set
Actual Time 6:47 AM CST 5:35 PM CST
Civil Twilight 6:20 AM CST 6:01 PM CST
Nautical Twilight 5:50 AM CST 6:32 PM CST
Astronomical Twilight 5:20 AM CST 7:02 PM CST
Moon 8:23 AM CST (2/13) 9:30 PM CST (2/13)
Length of Visible Light 11h 40m
Length of Day
10h 47m
Waxing Crescent, 14% of the Moon is Illuminated
Feb 13
Waxing Crescent
Feb 17
First Quarter
Feb 25
Full
Mar 4
Last Quarter
Mar 11
New

Hourly Weather History & Observations

Time (CST) Temp. Windchill Dew Point Humidity Pressure Visibility Wind Dir Wind Speed Gust Speed Precip Events Conditions
12:15 AM 42.8 °F 38.6 °F 35.6 °F 76% 29.89 in 7.0 mi NW 6.9 mph - N/A   Unknown
12:35 AM 42.8 °F 38.6 °F 35.6 °F 76% 29.88 in 10.0 mi NNW 6.9 mph - N/A   Unknown
12:55 AM 42.8 °F 38.0 °F 35.6 °F 76% 29.88 in 10.0 mi North 8.1 mph - 0.01 in   Unknown
1:15 AM 42.8 °F 39.3 °F 35.6 °F 76% 29.86 in 5.0 mi North 5.8 mph - 0.01 in   Unknown
1:35 AM 42.8 °F 40.1 °F 35.6 °F 76% 29.87 in 5.0 mi NW 4.6 mph - 0.02 in   Unknown
1:55 AM 42.8 °F 40.1 °F 35.6 °F 76% 29.87 in 5.0 mi NNW 4.6 mph - 0.03 in   Unknown
2:15 AM 42.8 °F 38.6 °F 35.6 °F 76% 29.87 in 7.0 mi NW 6.9 mph - N/A   Unknown
2:35 AM 42.8 °F 39.3 °F 35.6 °F 76% 29.87 in 5.0 mi NNW 5.8 mph - 0.01 in   Unknown
2:55 AM 42.8 °F 39.3 °F 35.6 °F 76% 29.87 in 10.0 mi NNW 5.8 mph - 0.01 in   Overcast
3:15 AM 42.8 °F 38.6 °F 35.6 °F 76% 29.87 in 7.0 mi NNW 6.9 mph - 0.01 in   Unknown
3:35 AM 42.8 °F 38.0 °F 35.6 °F 76% 29.87 in 7.0 mi North 8.1 mph 16.1 mph 0.01 in   Overcast
3:55 AM 41.0 °F 35.8 °F 35.6 °F 81% 29.86 in 7.0 mi North 8.1 mph - 0.01 in   Unknown
4:15 AM 41.0 °F 33.5 °F 35.6 °F 81% 29.85 in 7.0 mi North 13.8 mph 18.4 mph N/A   Overcast
4:35 AM 41.0 °F 35.2 °F 33.8 °F 76% 29.85 in 10.0 mi North 9.2 mph - N/A   Overcast
4:55 AM 41.0 °F 33.9 °F 33.8 °F 76% 29.85 in 7.0 mi North 12.7 mph - N/A   Unknown
5:15 AM 41.0 °F 33.5 °F 33.8 °F 76% 29.86 in 7.0 mi North 13.8 mph 20.7 mph N/A   Overcast
5:35 AM 39.2 °F 32.0 °F 33.8 °F 81% 29.86 in 5.0 mi North 11.5 mph - N/A   Unknown
5:55 AM 39.2 °F 32.5 °F 33.8 °F 81% 29.87 in 5.0 mi NNW 10.4 mph - N/A   Unknown
6:15 AM 39.2 °F 32.5 °F 33.8 °F 81% 29.87 in 7.0 mi North 10.4 mph - 0.01 in   Unknown
6:35 AM 39.2 °F 31.6 °F 33.8 °F 81% 29.88 in 7.0 mi NNW 12.7 mph - 0.01 in   Overcast
6:55 AM 37.4 °F 30.3 °F 33.8 °F 87% 29.88 in 7.0 mi North 10.4 mph - 0.01 in Snow Light Snow
7:15 AM 37.4 °F 30.8 °F 33.8 °F 87% 29.88 in 7.0 mi North 9.2 mph - N/A   Overcast
7:35 AM 37.4 °F 32.1 °F 33.8 °F 87% 29.89 in 7.0 mi North 6.9 mph - N/A   Overcast
7:55 AM 37.4 °F 31.4 °F 33.8 °F 87% 29.90 in 7.0 mi NNW 8.1 mph - N/A   Overcast
8:15 AM 39.2 °F 33.6 °F 35.6 °F 87% 29.92 in 7.0 mi NNW 8.1 mph - N/A   Overcast
8:35 AM 39.2 °F 34.2 °F 35.6 °F 87% 29.93 in 5.0 mi NNW 6.9 mph - N/A   Overcast
8:55 AM 39.2 °F 34.2 °F 35.6 °F 87% 29.93 in 4.0 mi WNW 6.9 mph - N/A   Overcast
9:15 AM 39.2 °F 35.0 °F 35.6 °F 87% 29.94 in 5.0 mi NW 5.8 mph - N/A   Overcast
9:35 AM 39.2 °F 34.2 °F 35.6 °F 87% 29.95 in 5.0 mi NW 6.9 mph - N/A   Overcast
9:55 AM 39.2 °F 33.6 °F 35.6 °F 87% 29.95 in 4.0 mi NW 8.1 mph - N/A   Unknown
10:15 AM 41.0 °F 37.1 °F 35.6 °F 81% 29.95 in 5.0 mi NW 5.8 mph - N/A   Overcast
10:35 AM 41.0 °F 36.4 °F 37.4 °F 87% 29.96 in 7.0 mi NW 6.9 mph - 0.01 in   Overcast
10:55 AM 42.8 °F 41.1 °F 37.4 °F 81% 29.95 in 7.0 mi NNW 3.5 mph - 0.01 in   Overcast
11:15 AM 41.0 °F 39.0 °F 37.4 °F 87% 29.95 in 10.0 mi West 3.5 mph - N/A   Overcast
11:35 AM 42.8 °F - 37.4 °F 81% 29.94 in 10.0 mi Calm Calm - N/A   Overcast
11:55 AM 42.8 °F 41.1 °F 37.4 °F 81% 29.94 in 10.0 mi SSW 3.5 mph - N/A   Overcast
12:15 PM 42.8 °F 39.3 °F 37.4 °F 81% 29.94 in 10.0 mi WSW 5.8 mph - N/A   Overcast
12:35 PM 46.4 °F 42.4 °F 39.2 °F 76% 29.93 in 10.0 mi SW 8.1 mph - N/A   Mostly Cloudy
12:55 PM 44.6 °F 42.2 °F 37.4 °F 76% 29.92 in 10.0 mi SW 4.6 mph - N/A   Overcast
1:15 PM 46.4 °F 42.9 °F 37.4 °F 71% 29.92 in 10.0 mi SW 6.9 mph - N/A   Scattered Clouds
1:35 PM 46.4 °F 42.4 °F 39.2 °F 76% 29.92 in 10.0 mi SSW 8.1 mph - N/A   Mostly Cloudy
1:55 PM 46.4 °F 41.9 °F 37.4 °F 71% 29.91 in 10.0 mi SW 9.2 mph - N/A   Mostly Cloudy
2:15 PM 48.2 °F - 39.2 °F 71% 29.91 in 10.0 mi SW 10.4 mph 17.3 mph N/A   Scattered Clouds
2:35 PM 48.2 °F - 37.4 °F 66% 29.90 in 10.0 mi SW 13.8 mph - N/A   Scattered Clouds
2:55 PM 48.2 °F - 37.4 °F 66% 29.91 in 10.0 mi SW 9.2 mph - N/A   Scattered Clouds
3:15 PM 48.2 °F - 37.4 °F 66% 29.91 in 10.0 mi SW 11.5 mph - N/A   Mostly Cloudy
3:35 PM 48.2 °F - 37.4 °F 66% 29.91 in 10.0 mi South 12.7 mph 17.3 mph N/A   Mostly Cloudy
3:55 PM 48.2 °F - 37.4 °F 66% 29.90 in 10.0 mi SSW 11.5 mph - N/A   Scattered Clouds
4:15 PM 48.2 °F - 37.4 °F 66% 29.90 in 10.0 mi SSW 6.9 mph 16.1 mph N/A   Scattered Clouds
4:35 PM 48.2 °F - 37.4 °F 66% 29.90 in 10.0 mi SSW 11.5 mph 16.1 mph N/A   Scattered Clouds
4:55 PM 46.4 °F 41.5 °F 37.4 °F 71% 29.90 in 10.0 mi South 10.4 mph 16.1 mph N/A   Scattered Clouds
5:15 PM 46.4 °F 41.5 °F 37.4 °F 71% 29.90 in 10.0 mi SSW 10.4 mph - N/A   Scattered Clouds
5:35 PM 44.6 °F 40.7 °F 37.4 °F 76% 29.90 in 10.0 mi South 6.9 mph - N/A   Scattered Clouds
5:55 PM 44.6 °F 40.7 °F 37.4 °F 76% 29.91 in 10.0 mi South 6.9 mph - N/A   Clear
6:15 PM 44.6 °F 40.2 °F 37.4 °F 76% 29.91 in 10.0 mi South 8.1 mph - N/A   Clear
6:35 PM 44.6 °F 40.2 °F 37.4 °F 76% 29.91 in 10.0 mi South 8.1 mph - N/A   Clear
6:55 PM 42.8 °F 38.0 °F 37.4 °F 81% 29.91 in 10.0 mi South 8.1 mph - N/A   Clear
7:15 PM 42.8 °F 38.0 °F 37.4 °F 81% 29.92 in 10.0 mi South 8.1 mph - N/A   Clear
7:35 PM 42.8 °F 38.0 °F 37.4 °F 81% 29.92 in 10.0 mi South 8.1 mph - N/A   Clear
7:55 PM 42.8 °F 37.0 °F 37.4 °F 81% 29.92 in 10.0 mi South 10.4 mph - N/A   Clear
8:15 PM 41.0 °F 35.2 °F 37.4 °F 87% 29.92 in 10.0 mi South 9.2 mph - N/A   Clear
8:35 PM 41.0 °F 35.2 °F 37.4 °F 87% 29.93 in 10.0 mi South 9.2 mph - N/A   Clear
8:55 PM 41.0 °F 35.8 °F 37.4 °F 87% 29.93 in 10.0 mi South 8.1 mph - N/A   Clear
9:15 PM 41.0 °F 35.2 °F 37.4 °F 87% 29.93 in 10.0 mi South 9.2 mph - N/A   Clear
9:35 PM 41.0 °F 34.7 °F 37.4 °F 87% 29.94 in 10.0 mi South 10.4 mph - N/A   Clear
9:55 PM 41.0 °F 35.2 °F 37.4 °F 87% 29.94 in 10.0 mi South 9.2 mph - N/A   Clear
10:15 PM 41.0 °F 34.7 °F 37.4 °F 87% 29.94 in 10.0 mi South 10.4 mph - N/A   Clear
10:35 PM 41.0 °F 35.8 °F 37.4 °F 87% 29.95 in 10.0 mi South 8.1 mph - N/A   Clear
10:55 PM 41.0 °F 36.4 °F 35.6 °F 81% 29.95 in 10.0 mi SSW 6.9 mph - N/A   Clear
11:15 PM 41.0 °F 34.7 °F 35.6 °F 81% 29.95 in 10.0 mi SSW 10.4 mph - N/A   Clear
11:35 PM 41.0 °F 36.4 °F 35.6 °F 81% 29.95 in 10.0 mi SSW 6.9 mph - N/A   Clear
11:55 PM 41.0 °F 38.0 °F 37.4 °F 87% 29.95 in 10.0 mi South 4.6 mph - N/A   Clear